KC5EZZ-2 Weather Reports


time (UTC)temp
C
wind
direction
speed
KPH
gust
KPH
rain 1hr
cm
rain 24hr
cm
rain mn
cm
humidity
%
barometer
mb
20260509123903 16 302 3.2 3.2 0.00 0.00 0.00
20260509123403 16 312 6.4 6.4 0.00 0.00 0.00
20260509122904 16 333 1.6 6.4 0.00 0.00 0.00
20260509122400 16 276 0.0 0.0 0.00 0.00 0.00
20260509121901 16 290 4.8 4.8 0.00 0.00 0.00
20260509121401 16 328 8.0 8.0 0.00 0.00 0.00
20260509120859 16 132 0.0 0.0 0.00 0.00 0.00
20260509120359 16 132 0.0 0.0 0.00 0.00 0.00
20260509115900 16 316 0.0 0.0 0.00 0.00 0.00
20260509115357 16 326 3.2 1.6 0.00 0.00 0.00
20260509114858 16 322 3.2 4.8 0.00 0.00 0.00
20260509114358 16 240 4.8 3.2 0.00 0.00 0.00
20260509113856 16 188 6.4 4.8 0.00 0.00 0.00
20260509113356 16 166 9.7 6.4 0.00 0.00 0.00
20260509112355 16 190 9.7 9.7 0.00 0.00 0.00
20260509111854 16 165 9.7 8.0 0.00 0.00 0.00
20260509111355 15 232 4.8 4.8 0.00 0.00 0.00
20260509110851 15 229 4.8 4.8 0.00 0.00 0.00
20260509110351 16 169 6.4 8.0 0.00 0.00 0.00
20260509105851 16 165 4.8 4.8 0.00 0.00 0.00
20260509105349 16 172 4.8 3.2 0.00 0.00 0.00
20260509104849 15 153 8.0 9.7 0.00 0.00 0.00
20260509104350 15 146 0.0 0.0 0.00 0.00 0.00
20260509103847 15 146 0.0 0.0 0.00 0.00 0.00
20260509103348 15 146 0.0 0.0 0.00 0.00 0.00
20260509102848 15 146 0.0 0.0 0.00 0.00 0.00
20260509102345 15 146 0.0 0.0 0.00 0.00 0.00
20260509101846 15 146 0.0 0.0 0.00 0.00 0.00
20260509101346 15 146 1.6 0.0 0.00 0.00 0.00
20260509100844 15 219 3.2 3.2 0.00 0.00 0.00
20260509100344 15 228 0.0 0.0 0.00 0.00 0.00
20260509095844 15 228 1.6 0.0 0.00 0.00 0.00
20260509095342 16 152 0.0 3.2 0.00 0.00 0.00
20260509094842 15 342 6.4 6.4 0.00 0.00 0.00
20260509094342 16 20 6.4 4.8 0.00 0.00 0.00
20260509093840 16 339 9.7 8.0 0.00 0.00 0.00
20260509093340 16 98 0.0 0.0 0.00 0.00 0.00
20260509092840 16 98 0.0 0.0 0.00 0.00 0.00
20260509092337 16 129 6.4 4.8 0.00 0.00 0.00
20260509091838 16 72 0.0 0.0 0.00 0.00 0.00
20260509091339 16 72 0.0 0.0 0.00 0.00 0.00
20260509090836 16 72 0.0 0.0 0.00 0.00 0.00
20260509090336 16 72 0.0 0.0 0.00 0.00 0.00
20260509085836 17 107 1.6 3.2 0.00 0.00 0.00
20260509085334 16 127 6.4 4.8 0.00 0.00 0.00
20260509084834 17 145 4.8 4.8 0.00 0.00 0.00
20260509084334 17 180 4.8 4.8 0.00 0.00 0.00
20260509083832 17 232 1.6 1.6 0.00 0.00 0.00
20260509083332 17 229 6.4 4.8 0.00 0.00 0.00
20260509082833 16 200 6.4 6.4 0.00 0.00 0.00
20260509082330 16 235 0.0 0.0 0.00 0.00 0.00
20260509081831 16 188 3.2 1.6 0.00 0.00 0.00
20260509081331 16 217 3.2 3.2 0.00 0.00 0.00
20260509080829 16 232 1.6 3.2 0.00 0.00 0.00
20260509080411 16 318 0.0 0.0 0.00 0.00 0.00
20260509080329 16 318 0.0 0.0 0.00 0.00 0.00
20260509075829 16 318 0.0 0.0 0.00 0.00 0.00
20260509075327 16 325 1.6 0.0 0.00 0.00 0.00
20260509074827 16 340 6.4 6.4 0.00 0.00 0.00
20260509074328 17 333 0.0 0.0 0.00 0.00 0.00
20260509073825 17 333 0.0 0.0 0.00 0.00 0.00
20260509073326 17 330 8.0 3.2 0.00 0.00 0.00
20260509072826 17 302 11.3 11.3 0.00 0.00 0.00
20260509072323 17 266 0.0 0.0 0.00 0.00 0.00
20260509071824 17 266 3.2 0.0 0.00 0.00 0.00
20260509071324 17 312 9.7 11.3 0.00 0.00 0.00
20260509070821 17 281 4.8 4.8 0.00 0.00 0.00
20260509065822 17 160 8.0 8.0 0.00 0.00 0.00
20260509065319 18 176 6.4 6.4 0.00 0.00 0.00
20260509064820 18 174 6.4 8.0 0.00 0.00 0.00
20260509064320 18 158 8.0 6.4 0.00 0.00 0.00
20260509063818 18 174 8.0 8.0 0.00 0.00 0.00
20260509063430 18 165 8.0 11.3 0.00 0.00 0.00
20260509063318 18 165 8.0 11.3 0.00 0.00 0.00
20260509062819 18 165 6.4 6.4 0.00 0.00 0.00
20260509062316 18 170 8.0 9.7 0.00 0.00 0.00
20260509061816 18 180 9.7 11.3 0.00 0.00 0.00
20260509061317 18 163 11.3 9.7 0.00 0.00 0.00
20260509060856 18 169 8.0 9.7 0.00 0.00 0.00
20260509060814 18 169 8.0 9.7 0.00 0.00 0.00
20260509060739 18 153 0.0 0.0 0.00 0.00 0.00
20260509060315 18 156 4.8 4.8 0.00 0.00 0.00
20260509055815 18 153 0.0 0.0 0.00 0.00 0.00
20260509055313 18 153 0.0 0.0 0.00 0.00 0.00
20260509054812 18 153 0.0 0.0 0.00 0.00 0.00
20260509054312 18 153 0.0 0.0 0.00 0.00 0.00
20260509053810 18 153 0.0 0.0 0.00 0.00 0.00
20260509053310 19 153 0.0 0.0 0.00 0.00 0.00
20260509052811 19 153 0.0 0.0 0.00 0.00 0.00
20260509052308 19 153 0.0 0.0 0.00 0.00 0.00
20260509051809 19 139 1.6 0.0 0.00 0.00 0.00
20260509051309 19 134 4.8 3.2 0.00 0.00 0.00
20260509050807 19 139 4.8 4.8 0.00 0.00 0.00
20260509050307 19 128 3.2 4.8 0.00 0.00 0.00
20260509045807 19 152 3.2 3.2 0.00 0.00 0.00
20260509045306 19 149 3.2 4.8 0.00 0.00 0.00
20260509044805 19 149 3.2 3.2 0.00 0.00 0.00
20260509044306 19 222 0.0 0.0 0.00 0.00 0.00
20260509043803 19 222 0.0 0.0 0.00 0.00 0.00
20260509043304 19 222 0.0 0.0 0.00 0.00 0.00
20260509042804 19 222 0.0 0.0 0.00 0.00 0.00
20260509042306 19 222 0.0 0.0 0.00 0.00 0.00
20260509041802 19 222 0.0 0.0 0.00 0.00 0.00
20260509041302 19 222 0.0 0.0 0.00 0.00 0.00
20260509040759 20 222 0.0 0.0 0.00 0.00 0.00
20260509040259 20 222 0.0 0.0 0.00 0.00 0.00
20260509035800 20 222 0.0 0.0 0.00 0.00 0.00
20260509035257 20 222 0.0 0.0 0.00 0.00 0.00
20260509034758 20 222 0.0 0.0 0.00 0.00 0.00
20260509034258 20 222 0.0 0.0 0.00 0.00 0.00
20260509033756 21 222 0.0 0.0 0.00 0.00 0.00
20260509033256 21 222 0.0 0.0 0.00 0.00 0.00
20260509032757 21 221 0.0 0.0 0.00 0.00 0.00
20260509032254 21 232 3.2 3.2 0.00 0.00 0.00
20260509031755 21 226 6.4 4.8 0.00 0.00 0.00
20260509031255 21 207 4.8 4.8 0.00 0.00 0.00
20260509030753 21 211 6.4 6.4 0.00 0.00 0.00
20260509030253 21 228 8.0 6.4 0.00 0.00 0.00
20260509025754 21 222 6.4 4.8 0.00 0.00 0.00
20260509025251 21 225 3.2 3.2 0.00 0.00 0.00
20260509024752 21 200 3.2 4.8 0.00 0.00 0.00
20260509024252 21 198 4.8 4.8 0.00 0.00 0.00
20260509023750 21 255 0.0 0.0 0.00 0.00 0.00
20260509023250 21 255 0.0 0.0 0.00 0.00 0.00
20260509022751 22 221 0.0 0.0 0.00 0.00 0.00
20260509022248 21 242 3.2 1.6 0.00 0.00 0.00
20260509021749 21 210 4.8 6.4 0.00 0.00 0.00
20260509021249 21 225 3.2 3.2 0.00 0.00 0.00
20260509020747 22 228 1.6 1.6 0.00 0.00 0.00
20260509020247 22 242 0.0 0.0 0.00 0.00 0.00
20260509015747 22 250 1.6 1.6 0.00 0.00 0.00
20260509015245 22 210 3.2 3.2 0.00 0.00 0.00
20260509014745 22 222 3.2 1.6 0.00 0.00 0.00
20260509014246 23 226 1.6 3.2 0.00 0.00 0.00
20260509013743 23 229 1.6 1.6 0.00 0.00 0.00
20260509013244 23 238 0.0 1.6 0.00 0.00 0.00
20260509012744 23 125 0.0 0.0 0.00 0.00 0.00
20260509012242 23 160 1.6 1.6 0.00 0.00 0.00
20260509011742 23 153 9.7 8.0 0.00 0.00 0.00
20260509011243 23 163 6.4 9.7 0.00 0.00 0.00
20260509010740 23 159 8.0 3.2 0.00 0.00 0.00
20260509010241 24 174 6.4 4.8 0.00 0.00 0.00
20260509005741 24 187 6.4 8.0 0.00 0.00 0.00
20260509005239 24 173 11.3 9.7 0.00 0.00 0.00
20260509004739 25 148 9.7 8.0 0.00 0.00 0.00
20260509004240 25 149 9.7 9.7 0.00 0.00 0.00
20260509003737 25 131 9.7 11.3 0.00 0.00 0.00
20260509002738 25 139 8.0 9.7 0.00 0.00 0.00
20260509002236 25 156 6.4 9.7 0.00 0.00 0.00
20260509001737 25 136 9.7 9.7 0.00 0.00 0.00
20260509001237 25 158 9.7 9.7 0.00 0.00 0.00
20260509000734 25 115 12.9 9.7 0.00 0.00 0.00
20260509000235 25 158 8.0 9.7 0.00 0.00 0.00
20260508235735 25 117 8.0 8.0 0.00 0.00 0.00
20260508234234 26 152 8.0 9.7 0.00 0.00 0.00
20260508233731 26 129 11.3 8.0 0.00 0.00 0.00
20260508232733 26 34 9.7 4.8 0.00 0.00 0.00
20260508232229 27 179 8.0 8.0 0.00 0.00 0.00
20260508231730 26 145 3.2 8.0 0.00 0.00 0.00
20260508231230 26 82 4.8 0.0 0.00 0.00 0.00
20260508230728 26 98 6.4 6.4 0.00 0.00 0.00
20260508230228 27 190 4.8 0.0 0.00 0.00 0.00
20260508225729 28 277 3.2 0.0 0.00 0.00 0.00
20260508225226 27 217 0.0 0.0 0.00 0.00 0.00
20260508224727 26 229 6.4 3.2 0.00 0.00 0.00
20260508224227 25 120 11.3 9.7 0.00 0.00 0.00
20260508223724 26 114 6.4 6.4 0.00 0.00 0.00
20260508223225 26 108 9.7 11.3 0.00 0.00 0.00
20260508222725 26 162 8.0 4.8 0.00 0.00 0.00
20260508222223 26 97 11.3 6.4 0.00 0.00 0.00
20260508221723 27 129 12.9 17.7 0.00 0.00 0.00
20260508221224 27 132 6.4 11.3 0.00 0.00 0.00
20260508220721 27 186 12.9 12.9 0.00 0.00 0.00
20260508220221 26 184 9.7 11.3 0.00 0.00 0.00
20260508215722 25 132 12.9 11.3 0.00 0.00 0.00
20260508215219 27 152 14.5 11.3 0.00 0.00 0.00
20260508214901 27 138 12.9 9.7 0.00 0.00 0.00
20260508214720 27 138 12.9 9.7 0.00 0.00 0.00
20260508214447 27 207 3.2 12.9 0.00 0.00 0.00
20260508214220 27 207 3.2 12.9 0.00 0.00 0.00
20260508213718 26 221 11.3 6.4 0.00 0.00 0.00
20260508213456 26 156 9.7 14.5 0.00 0.00 0.00
20260508213218 26 156 9.7 14.5 0.00 0.00 0.00
20260508212718 26 165 9.7 12.9 0.00 0.00 0.00
20260508212216 26 135 16.1 19.3 0.00 0.00 0.00
20260508211716 26 128 8.0 12.9 0.00 0.00 0.00
20260508211217 26 214 12.9 12.9 0.00 0.00 0.00
20260508210714 26 173 12.9 8.0 0.00 0.00 0.00
20260508210215 26 179 9.7 8.0 0.00 0.00 0.00
20260508205715 26 214 4.8 9.7 0.00 0.00 0.00
20260508205212 26 195 11.3 16.1 0.00 0.00 0.00
20260508204713 26 184 14.5 14.5 0.00 0.00 0.00
20260508204213 26 129 11.3 9.7 0.00 0.00 0.00
20260508203711 26 183 14.5 12.9 0.00 0.00 0.00
20260508203211 26 132 12.9 17.7 0.00 0.00 0.00
20260508202712 26 177 14.5 16.1 0.00 0.00 0.00
20260508202209 26 162 12.9 14.5 0.00 0.00 0.00
20260508201709 26 184 11.3 8.0 0.00 0.00 0.00
20260508201210 25 193 11.3 11.3 0.00 0.00 0.00
20260508200707 25 255 9.7 11.3 0.00 0.00 0.00
20260508200208 25 191 9.7 11.3 0.00 0.00 0.00
20260508195708 25 170 12.9 6.4 0.00 0.00 0.00
20260508195205 25 235 12.9 11.3 0.00 0.00 0.00
20260508194706 25 165 12.9 9.7 0.00 0.00 0.00
20260508194536 25 186 4.8 1.6 0.00 0.00 0.00
20260508194532 25 107 4.8 6.4 0.00 0.00 0.00
20260508194206 25 193 9.7 3.2 0.00 0.00 0.00
20260508193704 25 186 4.8 1.6 0.00 0.00 0.00
20260508193204 25 107 4.8 6.4 0.00 0.00 0.00
20260508192705 25 188 8.0 4.8 0.00 0.00 0.00
20260508192202 24 83 0.0 3.2 0.00 0.00 0.00
20260508191703 25 177 4.8 1.6 0.00 0.00 0.00
20260508191203 24 280 6.4 1.6 0.00 0.00 0.00
20260508190701 24 243 4.8 4.8 0.00 0.00 0.00
20260508190201 24 248 4.8 4.8 0.00 0.00 0.00
20260508185701 24 318 0.0 0.0 0.00 0.00 0.00
20260508185159 24 264 6.4 4.8 0.00 0.00 0.00
20260508184659 23 156 8.0 6.4 0.00 0.00 0.00
20260508184200 23 218 8.0 3.2 0.00 0.00 0.00
20260508183657 23 276 6.4 11.3 0.00 0.00 0.00
20260508183158 23 183 11.3 9.7 0.00 0.00 0.00
20260508182658 23 163 4.8 4.8 0.00 0.00 0.00
20260508182156 23 195 4.8 6.4 0.00 0.00 0.00
20260508181656 22 215 8.0 8.0 0.00 0.00 0.00
20260508181157 22 243 8.0 6.4 0.00 0.00 0.00
20260508180654 23 188 3.2 6.4 0.00 0.00 0.00
20260508180155 23 191 1.6 0.0 0.00 0.00 0.00
20260508175655 23 191 0.0 0.0 0.00 0.00 0.00
20260508175153 22 187 3.2 1.6 0.00 0.00 0.00
20260508174653 22 4 0.0 0.0 0.00 0.00 0.00
20260508174154 22 97 0.0 6.4 0.00 0.00 0.00
20260508173651 22 339 0.0 1.6 0.00 0.00 0.00
20260508173152 22 215 0.0 0.0 0.00 0.00 0.00
20260508172652 22 215 0.0 0.0 0.00 0.00 0.00
20260508172150 21 181 1.6 1.6 0.00 0.00 0.00
20260508171650 21 110 3.2 4.8 0.00 0.00 0.00
20260508171150 21 70 0.0 0.0 0.00 0.00 0.00
20260508170648 21 73 3.2 6.4 0.00 0.00 0.00
20260508170148 21 113 0.0 4.8 0.00 0.00 0.00
20260508165649 21 97 0.0 0.0 0.00 0.00 0.00
20260508165146 22 97 0.0 0.0 0.00 0.00 0.00
20260508164647 22 150 8.0 11.3 0.00 0.00 0.00
20260508164147 22 115 4.8 0.0 0.00 0.00 0.00
20260508163645 23 138 9.7 11.3 0.00 0.00 0.00
20260508163145 22 160 8.0 3.2 0.00 0.00 0.00
20260508162645 20 35 0.0 0.0 0.00 0.00 0.00
20260508162143 20 55 6.4 4.8 0.00 0.00 0.00
20260508161643 20 131 9.7 3.2 0.00 0.00 0.00
20260508161144 21 131 4.8 4.8 0.00 0.00 0.00
20260508160641 22 285 0.0 0.0 0.00 0.00 0.00
20260508160142 21 285 3.2 0.0 0.00 0.00 0.00
20260508155642 21 139 4.8 3.2 0.00 0.00 0.00
20260508155139 20 203 4.8 1.6 0.00 0.00 0.00
20260508154640 19 79 3.2 1.6 0.00 0.00 0.00
20260508154140 20 359 0.0 0.0 0.00 0.00 0.00
20260508153638 18 59 1.6 0.0 0.00 0.00 0.00
20260508153138 18 60 8.0 1.6 0.00 0.00 0.00
20260508152639 17 69 3.2 0.0 0.00 0.00 0.00
20260508152136 18 70 4.8 6.4 0.00 0.00 0.00
20260508151636 18 169 6.4 1.6 0.00 0.00 0.00
20260508151137 17 60 6.4 1.6 0.00 0.00 0.00
20260508150634 18 124 0.0 0.0 0.00 0.00 0.00
20260508150135 17 101 0.0 8.0 0.00 0.00 0.00
20260508145635 17 121 4.8 6.4 0.00 0.00 0.00
20260508145133 16 38 3.2 3.2 0.00 0.00 0.00
20260508144633 16 42 4.8 4.8 0.00 0.00 0.00
20260508144133 16 125 1.6 0.0 0.00 0.00 0.00
20260508143131 16 48 3.2 8.0 0.00 0.00 0.00
20260508142632 16 97 11.3 8.0 0.00 0.00 0.00
20260508142129 16 148 4.8 6.4 0.00 0.00 0.00
20260508141630 15 146 8.0 6.4 0.00 0.00 0.00
20260508141130 15 111 8.0 9.7 0.00 0.00 0.00
20260508140628 15 91 6.4 6.4 0.00 0.00 0.00
20260508140128 15 83 6.4 3.2 0.00 0.00 0.00
20260508135628 15 89 6.4 6.4 0.00 0.00 0.00
20260508135126 15 59 4.8 3.2 0.00 0.00 0.00
20260508134626 15 69 4.8 6.4 0.00 0.00 0.00
20260508134127 15 59 1.6 0.0 0.00 0.00 0.00
20260508133624 15 56 4.8 1.6 0.00 0.00 0.00
20260508133124 15 77 8.0 3.2 0.00 0.00 0.00
20260508132625 15 359 9.7 6.4 0.00 0.00 0.00
20260508132122 15 0 11.3 11.3 0.00 0.00 0.00
20260508131622 15 6 8.0 9.7 0.00 0.00 0.00
20260508131123 15 10 9.7 11.3 0.00 0.00 0.00
20260508130620 15 18 11.3 11.3 0.00 0.00 0.00
20260508130121 15 28 9.7 8.0 0.00 0.00 0.00
20260508125621 15 39 6.4 9.7 0.00 0.00 0.00
20260508125119 15 68 8.0 8.0 0.00 0.00 0.00
20260508124619 15 46 6.4 6.4 0.00 0.00 0.00
20260508124120 15 41 8.0 9.7 0.00 0.00 0.00